[[{"header":{"parameterUnit":"m.s-1","parameterCategory":1,"la1":30.2991,"la2":30.254,"lo1":-89.0895,"lo2":-89.0444,"dy":0.0017,"dx":0.0017,"nx":28,"ny":28,"refTime":"2025-04-09T09:00:00:Z","depth":0,"parameterNumber":2,"parameterNumberName":"U-component_of_WINDS"},"data":[0,0,0,0,0,0,0,0,0,0,0,0,0,0,0,0,0,0,0,0,0,0,0,0,0,0,0,0,0,0,0,0,0,0,0,0,0,0,0,0,0,0,0,0,0,0,0,0,0,0,0,0,0,0,0,0,0,0,-1.9176,-1.9177,0,-1.9216,-1.9217,-1.9217,-1.9176,-1.9174,-1.9173,-1.9171,-1.9215,-1.9217,-1.922,0,0,0,0,0,0,0,0,0,0,0,0,0,-1.9066,-1.9068,-1.9176,-1.9177,-1.9177,-1.9216,-1.9217,-1.9217,-1.9176,-1.9174,-1.9172,-1.9171,-1.9214,-1.9217,-1.922,0,0,0,0,0,0,0,0,0,0,0,0,0,-1.9111,-1.9069,-1.9176,-1.9161,-1.916,-1.9216,-1.9217,-1.9217,-1.9177,-1.9174,-1.9172,-1.917,-1.9213,-1.9217,-1.9221,-1.9293,0,0,-1.9233,-1.9235,0,0,0,0,0,0,0,0,-1.9108,-1.9115,-1.9163,-1.9162,-1.9161,-1.9189,-1.9194,-1.9243,-1.9177,-1.9171,-1.9171,-1.9168,-1.9208,-1.9212,-1.9225,-1.9296,-1.9297,-1.9233,-1.9236,-1.9237,-1.9238,0,0,0,0,0,0,0,-1.9105,-1.9113,-1.9192,-1.9164,-1.9163,-1.9153,-1.9157,-1.9203,-1.9203,-1.9171,-1.9168,-1.9173,-1.9207,-1.9222,-1.9226,-1.9298,-1.9233,-1.9237,-1.9239,-1.9241,-1.9431,-1.9434,0,0,0,0,0,0,-1.9104,-1.9111,-1.9191,-1.9193,-1.9128,-1.9157,-1.9161,-1.9182,-1.9202,-1.9202,-1.9175,-1.9171,-1.9216,-1.9221,-1.9227,-1.9315,-1.9237,-1.9241,-1.9243,-1.9428,-1.9432,-1.9434,0,0,0,0,0,0,-1.9101,-1.9111,-1.9189,-1.9151,-1.916,-1.9162,-1.9186,-1.9184,-1.9199,-1.9205,-1.9205,-1.919,-1.9214,-1.9222,-1.9277,-1.9316,-1.9243,-1.9246,-1.9425,-1.9429,-1.9433,-1.949,0,0,0,0,0,0,-1.9098,-1.9111,-1.9138,-1.9152,-1.9163,-1.9238,-1.9188,-1.9187,-1.9205,-1.92,-1.9219,-1.9219,-1.9213,-1.9272,-1.9281,-1.932,-1.925,-1.9422,-1.9427,-1.9432,-1.9485,-1.9495,-1.9505,0,0,0,0,0,-1.9095,-1.9152,-1.9139,-1.9149,-1.9197,-1.924,-1.9246,-1.9237,-1.9209,-1.9236,-1.9241,-1.9219,-1.931,-1.9278,-1.9288,-1.9329,-1.9419,-1.9426,-1.9431,-1.948,-1.9493,-1.9504,0,0,0,0,0,0,-1.9143,-1.9154,-1.914,-1.9204,-1.9221,-1.9233,-1.9268,-1.9251,-1.9278,-1.9272,-1.926,-1.9264,-1.9324,-1.9331,-1.9296,-1.9401,-1.936,-1.9368,-1.9394,-1.9406,-1.9416,-1.9413,-1.9253,0,0,0,0,0,-1.9161,-1.9195,-1.9203,-1.9259,-1.9268,-1.9267,-1.9286,-1.9277,-1.9295,-1.9302,-1.931,-1.933,-1.9362,-1.9384,-1.9415,-1.9485,-1.9489,-1.9518,-1.9528,-1.9536,-1.9544,-1.9583,-1.9596,-1.9454,-1.9454,-1.9454,0,0,-1.9199,-1.9209,-1.9232,-1.9269,-1.9282,-1.9318,-1.9273,-1.9314,-1.9341,-1.9309,-1.9362,-1.9368,-1.9389,-1.9452,-1.9481,-1.9461,-1.9584,-1.9544,-1.955,-1.9554,-1.959,-1.9604,-1.9616,-1.9458,-1.9458,-1.9457,0,0,-1.9288,-1.9298,-1.9346,-1.936,-1.9379,-1.9377,-1.9389,-1.9404,-1.9407,-1.9459,-1.9436,-1.9469,-1.9525,-1.9541,-1.9556,-1.9651,-1.9632,-1.9661,-1.9713,-1.9751,-1.9762,-1.9772,-1.9807,-1.982,-1.9668,-1.9668,-1.9668,0,-1.9333,-1.9386,-1.9373,-1.9415,-1.9433,-1.9404,-1.9454,-1.9467,-1.9496,-1.9509,-1.9486,-1.9557,-1.9568,-1.9636,-1.9659,-1.9672,-1.9686,-1.9659,-1.9762,-1.9771,-1.9781,-1.9814,-1.9827,-1.9672,-1.9671,-1.9671,-1.9671,0,-1.9441,-1.9478,-1.9515,-1.9543,-1.9564,-1.961,-1.9605,-1.9628,-1.9617,-1.9619,-1.9673,-1.9686,-1.9719,-1.9734,-1.9724,-1.9801,-1.9788,-1.9763,-1.9723,-1.9798,-1.9829,-1.9841,-1.9677,-1.9676,-1.9675,-1.9674,0,0,-1.9562,-1.9582,-1.9596,-1.9608,-1.9628,-1.9657,-1.9701,-1.9732,-1.9753,-1.9774,-1.9812,-1.986,-1.9838,-1.9855,-1.9847,-1.988,-1.9955,-1.9852,-1.9852,-1.9872,-2.0041,-2.0061,-2.0075,-1.9942,-1.9945,-1.9947,-2.004,0,-1.9651,-1.9728,-1.9718,-1.9792,-1.9826,-1.98,-1.9839,-1.9855,-1.9858,-1.9888,-1.989,-1.9926,-1.9893,-1.9903,-1.9935,-1.9939,-1.9989,-1.9932,-1.9979,-1.9981,-1.9976,-2.0091,-2.0112,-2.02,-2.0052,-2.0054,-2.0056,0,-1.9766,-1.9791,-1.9868,-1.9882,-1.9896,-1.9931,-1.996,-1.9989,-2.0007,-2.0007,-2.0026,-2.0012,-2.0057,-2.0015,-2.0078,-2.0039,-2.0057,-2.0063,-2.0066,-2.0071,-2.0024,-2.0101,-2.0227,-2.0241,-2.0074,-2.0073,-2.0071,0,-1.9848,-1.99,-1.9953,-1.9965,-1.9983,-2.0008,-2.0017,-2.0033,-2.0052,-2.0077,-2.009,-2.012,-2.0137,-2.0162,-2.0156,-2.0125,-2.0221,-2.0178,-2.0223,-2.0223,-2.0246,-2.0245,-2.0378,-2.0255,-2.0255,-2.0255,-2.0254,0,-1.995,-1.9999,-1.9991,-2.0024,-2.0078,-2.0066,-2.012,-2.0125,-2.0139,-2.0174,-2.0152,-2.0185,-2.0175,-2.0207,-2.0203,-2.0257,-2.0264,-2.0266,-2.0265,-2.0269,-2.0269,-2.0282,-2.0276,-2.0258,-2.0257,-2.0257,-2.0256,0,-2.0052,-2.0048,-2.0104,-2.0116,-2.012,-2.016,-2.017,-2.0202,-2.0202,-2.0245,-2.0255,-2.0256,-2.0293,-2.0289,-2.0331,-2.0328,-2.0395,-2.0386,-2.0389,-2.0387,-2.0433,-2.043,-2.0581,-2.0601,-2.0464,-2.0465,-2.0466,0,-2.0117,-2.0154,-2.017,-2.0191,-2.0201,-2.0235,-2.0255,-2.0245,-2.0267,-2.0291,-2.032,-2.0355,-2.0382,-2.0443,-2.0448,-2.048,-2.0472,-2.0522,-2.0477,-2.048,-2.0474,-2.0473,-2.0477,-2.0532,-2.0534,-2.0535,-2.0536,0,-2.0235,-2.0232,-2.0261,-2.029,-2.0314,-2.0337,-2.0357,-2.0376,-2.0368,-2.0393,-2.0431,-2.0452,-2.0494,-2.053,-2.056,-2.057,-2.0552,-2.055,-2.0562,-2.0568,-2.0569,-2.057,-2.0415,-2.0547,-2.0546,-2.0545,-2.0544,-2.0544,-2.0322,-2.0354,-2.037,-2.0404,-2.0418,-2.0437,-2.0467,-2.0471,-2.0502,-2.0535,-2.0527,-2.057,-2.0588,-2.0626,-2.0639,-2.0673,-2.0655,-2.0672,-2.0677,-2.0682,-2.0688,-2.0562,-2.0678,-2.0678,-2.0677,-2.0677,-2.0677,0,-2.044,-2.0449,-2.048,-2.0509,-2.0535,-2.0515,-2.0537,-2.0561,-2.0598,-2.0616,-2.0643,-2.0687,-2.0721,-2.0728,-2.0761,-2.0787,-2.078,-2.0796,-2.0795,-2.0797,-2.0702,-2.0688,-2.0801,-2.0801,-2.0801,-2.0801,-2.0801,-2.0801,-2.0504,-2.0557,-2.0556,-2.0616,-2.0624,-2.0665,-2.068,-2.0698,-2.0712,-2.0761,-2.0789,-2.0794,-2.0808,-2.0841,-2.0872,-2.0873,-2.0887,-2.0907,-2.0906,-2.0816,-2.0804,-2.0792,-2.078,-2.091,-2.091,-2.0999,-2.1,-2.1]},{"header":{"parameterUnit":"m.s-1","parameterCategory":1,"la1":30.2991,"la2":30.254,"lo1":-89.0895,"lo2":-89.0444,"dy":0.0017,"dx":0.0017,"nx":28,"ny":28,"refTime":"2025-04-09T09:00:00:Z","depth":0,"parameterNumber":3,"parameterNumberName":"V-component_of_WINDS"},"data":[0,0,0,0,0,0,0,0,0,0,0,0,0,0,0,0,0,0,0,0,0,0,0,0,0,0,0,0,0,0,0,0,0,0,0,0,0,0,0,0,0,0,0,0,0,0,0,0,0,0,0,0,0,0,0,0,0,0,-2.0802,-2.0802,0,-2.0839,-2.0839,-2.084,-2.0805,-2.0804,-2.0802,-2.0801,-2.0837,-2.0839,-2.0841,0,0,0,0,0,0,0,0,0,0,0,0,0,-2.0699,-2.0701,-2.0802,-2.0802,-2.0803,-2.0839,-2.0839,-2.084,-2.0805,-2.0804,-2.0802,-2.08,-2.0836,-2.0838,-2.0841,0,0,0,0,0,0,0,0,0,0,0,0,0,-2.0741,-2.0702,-2.0802,-2.079,-2.0789,-2.0839,-2.0839,-2.084,-2.0806,-2.0804,-2.0801,-2.08,-2.0835,-2.0838,-2.0842,-2.0904,0,0,-2.0852,-2.0853,0,0,0,0,0,0,0,0,-2.0738,-2.0744,-2.0791,-2.0791,-2.079,-2.0815,-2.0816,-2.0861,-2.0806,-2.0799,-2.0801,-2.0799,-2.0831,-2.0835,-2.0846,-2.0905,-2.0907,-2.0852,-2.0854,-2.0856,-2.0856,0,0,0,0,0,0,0,-2.0735,-2.0743,-2.0816,-2.0792,-2.0791,-2.0782,-2.0786,-2.0824,-2.0826,-2.08,-2.0797,-2.0802,-2.083,-2.0843,-2.0847,-2.0907,-2.0852,-2.0855,-2.0857,-2.0858,-2.102,-2.1022,0,0,0,0,0,0,-2.0734,-2.074,-2.0815,-2.0818,-2.0759,-2.0786,-2.079,-2.0809,-2.0826,-2.0826,-2.0804,-2.0801,-2.0838,-2.0843,-2.0848,-2.0922,-2.0856,-2.0859,-2.0861,-2.1018,-2.102,-2.1023,0,0,0,0,0,0,-2.0732,-2.0741,-2.0814,-2.0778,-2.0787,-2.079,-2.0812,-2.0811,-2.0824,-2.0829,-2.0829,-2.0817,-2.0837,-2.0843,-2.089,-2.0923,-2.086,-2.0863,-2.1015,-2.1018,-2.1022,-2.1071,0,0,0,0,0,0,-2.0729,-2.0741,-2.0765,-2.0779,-2.0789,-2.0857,-2.0814,-2.0813,-2.083,-2.0826,-2.0841,-2.0841,-2.0835,-2.0885,-2.0894,-2.0926,-2.0866,-2.1012,-2.1016,-2.102,-2.1067,-2.1076,-2.1084,0,0,0,0,0,-2.0726,-2.0777,-2.0766,-2.0776,-2.082,-2.0859,-2.0864,-2.0857,-2.0833,-2.0857,-2.086,-2.0841,-2.0918,-2.0891,-2.0899,-2.0934,-2.101,-2.1015,-2.102,-2.1063,-2.1074,-2.1084,0,0,0,0,0,0,-2.0766,-2.0779,-2.0767,-2.0825,-2.0841,-2.0853,-2.0883,-2.0869,-2.0892,-2.0887,-2.0876,-2.088,-2.093,-2.0936,-2.0906,-2.0995,-2.096,-2.0967,-2.0989,-2.1,-2.1008,-2.1006,-2.0869,0,0,0,0,0,-2.0781,-2.0813,-2.0822,-2.0872,-2.0881,-2.0881,-2.0897,-2.089,-2.0907,-2.0913,-2.092,-2.0936,-2.0963,-2.0982,-2.1007,-2.1067,-2.107,-2.1095,-2.1103,-2.111,-2.1117,-2.1149,-2.1161,-2.104,-2.104,-2.1039,0,0,-2.0814,-2.0825,-2.0845,-2.088,-2.0892,-2.0924,-2.0887,-2.0922,-2.0946,-2.0918,-2.0964,-2.0969,-2.0986,-2.104,-2.1064,-2.1047,-2.1151,-2.1117,-2.1122,-2.1125,-2.1156,-2.1167,-2.1177,-2.1043,-2.1042,-2.1042,0,0,-2.089,-2.0901,-2.0944,-2.0957,-2.0976,-2.0975,-2.0985,-2.0999,-2.1002,-2.1048,-2.1028,-2.1055,-2.1103,-2.1116,-2.1129,-2.1209,-2.1193,-2.1218,-2.1263,-2.1294,-2.1304,-2.1312,-2.1342,-2.1352,-2.1224,-2.1224,-2.1224,0,-2.0928,-2.0976,-2.0968,-2.1005,-2.1021,-2.0998,-2.1041,-2.1054,-2.1079,-2.1091,-2.1071,-2.1131,-2.114,-2.1197,-2.1217,-2.1227,-2.1239,-2.1216,-2.1303,-2.1312,-2.1319,-2.1347,-2.1358,-2.1227,-2.1227,-2.1226,-2.1226,0,-2.1022,-2.1056,-2.1089,-2.1115,-2.1135,-2.1175,-2.1172,-2.1192,-2.1183,-2.1184,-2.1231,-2.1241,-2.1269,-2.1282,-2.1273,-2.1337,-2.1326,-2.1305,-2.127,-2.1334,-2.136,-2.1371,-2.1231,-2.123,-2.1229,-2.1229,0,0,-2.1125,-2.1147,-2.1159,-2.1171,-2.1189,-2.1215,-2.1254,-2.1281,-2.1299,-2.1317,-2.135,-2.139,-2.1371,-2.1386,-2.1378,-2.1406,-2.1469,-2.1381,-2.1381,-2.1398,-2.1541,-2.1558,-2.1571,-2.1458,-2.146,-2.1461,-2.154,0,-2.1203,-2.1271,-2.1265,-2.1329,-2.1361,-2.1339,-2.1372,-2.1387,-2.1389,-2.1415,-2.1417,-2.1446,-2.1418,-2.1427,-2.1453,-2.1456,-2.1498,-2.145,-2.1488,-2.1489,-2.1486,-2.1584,-2.1602,-2.1676,-2.155,-2.1552,-2.1553,0,-2.1302,-2.1325,-2.1394,-2.1408,-2.1421,-2.1451,-2.1476,-2.1501,-2.1517,-2.1517,-2.1533,-2.152,-2.1559,-2.1522,-2.1574,-2.1542,-2.1556,-2.156,-2.1562,-2.1567,-2.1526,-2.1592,-2.1699,-2.1711,-2.1569,-2.1568,-2.1567,0,-2.1372,-2.1419,-2.1467,-2.1477,-2.1495,-2.1517,-2.1525,-2.1539,-2.1556,-2.1577,-2.1588,-2.1613,-2.1627,-2.1646,-2.1641,-2.1614,-2.1694,-2.1657,-2.1695,-2.1695,-2.1714,-2.1713,-2.1827,-2.1722,-2.1721,-2.1721,-2.1721,0,-2.146,-2.1503,-2.1498,-2.1528,-2.1575,-2.1566,-2.1612,-2.1617,-2.163,-2.1659,-2.1641,-2.1668,-2.1658,-2.1685,-2.1681,-2.1725,-2.1731,-2.1732,-2.173,-2.1734,-2.1734,-2.1744,-2.174,-2.1724,-2.1724,-2.1723,-2.1722,0,-2.1546,-2.1545,-2.1595,-2.1607,-2.1611,-2.1646,-2.1656,-2.1683,-2.1683,-2.172,-2.1729,-2.1729,-2.176,-2.1756,-2.1789,-2.1786,-2.1842,-2.1833,-2.1837,-2.1835,-2.1874,-2.1871,-2.1999,-2.2016,-2.1899,-2.19,-2.1901,0,-2.1603,-2.1635,-2.1651,-2.167,-2.168,-2.171,-2.1728,-2.172,-2.1739,-2.1759,-2.1784,-2.1813,-2.1836,-2.1886,-2.1889,-2.1914,-2.1907,-2.195,-2.1911,-2.1914,-2.1909,-2.1908,-2.1911,-2.1958,-2.196,-2.1961,-2.1961,0,-2.1704,-2.1702,-2.1728,-2.1755,-2.1777,-2.1797,-2.1815,-2.1831,-2.1825,-2.1847,-2.1879,-2.1896,-2.1931,-2.196,-2.1985,-2.1992,-2.1976,-2.1974,-2.1984,-2.1989,-2.199,-2.1991,-2.1859,-2.1971,-2.197,-2.1969,-2.1969,-2.1969,-2.1778,-2.1806,-2.1822,-2.1852,-2.1865,-2.1883,-2.1909,-2.1913,-2.1939,-2.1968,-2.1961,-2.1997,-2.2011,-2.2042,-2.2052,-2.2079,-2.2063,-2.2078,-2.2082,-2.2086,-2.2091,-2.1985,-2.2083,-2.2083,-2.2083,-2.2082,-2.2082,0,-2.1879,-2.1888,-2.1916,-2.1942,-2.1966,-2.1949,-2.1968,-2.1989,-2.2021,-2.2037,-2.206,-2.2096,-2.2124,-2.2129,-2.2156,-2.2176,-2.217,-2.2184,-2.2183,-2.2185,-2.2103,-2.2092,-2.2189,-2.2189,-2.2189,-2.2189,-2.2189,-2.2189,-2.1934,-2.1981,-2.1981,-2.2034,-2.2042,-2.2078,-2.2091,-2.2107,-2.2119,-2.216,-2.2184,-2.2187,-2.2198,-2.2225,-2.225,-2.2251,-2.2262,-2.2279,-2.2277,-2.2201,-2.219,-2.218,-2.217,-2.2281,-2.2281,-2.2356,-2.2357,-2.2357]}]]